This is the latest recevied weather packets stored in our database for station/object KXNA. If no packets are shown the sender has not sent any weather packets the latest 1 day(s).
| Time | Temp. | Humidity | Pressure | Rain* | Wind** | Luminosity | Snow |
|---|---|---|---|---|---|---|---|
| 1778007825 | 13.89° C | 87% | 1006.4 hPa | - | 6.71 m/s, 20° | - | - |
| 1778007224 | 16.67° C | 93% | 1005.8 hPa | - | 5.36 m/s, 350° | - | - |
| 1778006623 | 16.67° C | 93% | 1005.8 hPa | - | 5.36 m/s, 350° | - | - |
| 1778006025 | 16.67° C | 93% | 1005.8 hPa | - | 5.36 m/s, 350° | - | - |
| 1778005423 | 16.67° C | 93% | 1005.8 hPa | - | 5.36 m/s, 350° | - | - |
| 1778004821 | 16.67° C | 93% | 1005.8 hPa | - | 5.36 m/s, 350° | - | - |
| 1778004223 | 16.67° C | 93% | 1015.6 hPa | - | 5.36 m/s, 350° | - | - |
| 1778003622 | 17.78° C | 88% | 1005.8 hPa | - | 4.47 m/s, 40° | - | - |
| 1778003017 | 17.78° C | 88% | 1005.8 hPa | - | 4.47 m/s, 40° | - | - |
| 1778002420 | 17.78° C | 88% | 1005.8 hPa | - | 4.92 m/s, 20° | - | - |
| 1778001819 | 17.78° C | 88% | 1005.8 hPa | - | 4.92 m/s, 20° | - | - |
| 1778001225 | 17.78° C | 88% | 1005.8 hPa | - | 4.92 m/s, 20° | - | - |
| 1778000623 | 17.78° C | 88% | 1005.8 hPa | - | 4.92 m/s, 20° | - | - |
| 1778000022 | 18.89° C | 88% | 1005.8 hPa | - | 2.68 m/s, 50° | - | - |
| 1777999425 | 18.89° C | 88% | 1005.8 hPa | - | 2.68 m/s, 50° | - | - |
| 1777998821 | 18.89° C | 88% | 1005.4 hPa | - | 4.02 m/s, 50° | - | - |
| 1777998224 | 18.89° C | 88% | 1005.4 hPa | - | 4.02 m/s, 50° | - | - |
| 1777997621 | 18.89° C | 88% | 1005.4 hPa | - | 4.02 m/s, 50° | - | - |
| 1777997029 | 18.89° C | 88% | 1005.4 hPa | - | 4.02 m/s, 50° | - | - |
| 1777996424 | 18.89° C | 88% | 1005.4 hPa | - | 4.47 m/s, 100° | - | - |
| 1777995941 | 18.89° C | 88% | 1005.4 hPa | - | 3.58 m/s, 90° | - | - |
| 1777995221 | 18.89° C | 88% | 1005.4 hPa | - | 3.58 m/s, 90° | - | - |
| 1777994622 | 18.89° C | 88% | 1005.4 hPa | - | 3.58 m/s, 90° | - | - |
| 1777994021 | 17.78° C | 88% | 1005.4 hPa | - | 2.68 m/s, 80° | - | - |
| 1777993419 | 17.78° C | 88% | 1005.4 hPa | - | 2.68 m/s, 80° | - | - |
* Rain since midnight (hover to see other rain measurements)
** Current wind speed in m/s (hover to see current wind gust speed)